Back to catalog

SPAINSAT NG II

AliveMilitaryHEO
NORAD 66144·PAYLOAD·🇪🇸 Spain

Launched Oct 24, 2025 from Cape Canaveral Space Force Station

Loading…

Next Passes (next 24 hours)

TLE

FreshSource: Space-Track

Epoch: Sep 13, 2026, 18:00 UTC

1 66144U 25239A   26256.75068410 -.00000016  00000-0  00000-0 0  9992
2 66144  12.8715 213.8217 7646837 231.2720  32.4627  0.96596973  3190

Track SPAINSAT NG II in real time with AllMySat

Download on the App Store